Wind_Speed
11 11 12 12 13 13 14 14 14 14 14 14 15 15 15 15 16 17 17 17 18 18 18 18 18 18 18 17 16 16 15 14 14 13 12 11 10 9 8 6 6 5 5
12 13 14 15 15 16 16 17 17 17 17 17 17 17 17 18 18 18 18 18 19 19 19 19 19 19 19 18 17 17 17 16 15 14 13 12 11 10 9 7 6 5 4
13 14 15 16 17 18 18 19 19 20 20 20 20 20 20 20 20 20 20 20 21 21 21 21 20 20 19 18 18 18 18 17 16 15 14 13 12 11 9 8 7 5 4
14 15 17 18 18 19 20 21 21 22 22 23 23 23 23 23 22 22 23 22 22 22 22 22 22 21 20 19 19 18 18 18 17 16 15 14 13 11 10 9 8 6 5
16 17 18 19 19 20 21 22 22 23 23 24 25 24 25 25 25 24 25 25 25 24 24 23 24 23 22 21 20 19 18 18 17 16 15 14 13 12 11 9 8 7 6
17 18 19 20 20 20 21 21 22 22 23 24 25 25 26 26 27 27 27 28 27 26 26 25 24 24 23 23 21 19 19 18 17 16 15 14 14 12 11 10 9 8 7
17 18 19 19 19 20 20 20 20 21 21 22 23 24 25 25 27 27 28 28 29 29 29 28 26 25 25 24 22 21 20 18 17 17 15 15 14 13 12 11 10 9 9
18 18 17 18 18 18 18 18 19 19 20 20 21 22 23 24 26 27 27 27 29 29 29 29 29 27 26 25 23 22 21 20 18 17 16 15 15 14 13 12 11 10 9
17 17 16 16 16 17 17 17 17 18 18 19 20 21 22 23 24 25 27 27 28 30 30 29 29 29 27 27 25 24 22 21 20 18 16 15 15 14 13 12 12 11 11
16 15 15 14 14 14 15 16 16 17 17 18 18 19 20 20 22 23 24 26 27 29 29 29 29 30 29 27 26 25 24 22 21 19 17 16 16 14 13 13 12 12 12
14 13 13 13 14 14 14 15 16 16 17 17 18 18 19 19 20 21 22 24 26 27 28 29 30 30 30 29 27 26 25 23 22 20 18 17 16 15 14 13 13 13 13
12 12 12 13 14 14 15 15 16 17 17 17 17 18 18 19 19 20 21 22 23 24 26 27 28 29 29 29 27 25 25 24 23 21 20 18 17 16 15 14 14 13 14
11 11 12 12 13 14 15 16 16 17 18 18 18 18 18 19 19 19 19 20 21 22 23 25 26 27 27 29 28 26 25 24 23 22 21 20 18 17 16 15 15 14 14
10 10 11 12 13 14 15 16 17 18 18 19 19 19 18 18 18 18 18 18 19 20 21 23 24 25 26 27 28 26 25 25 24 22 21 21 20 18 17 16 16 15 15
9 10 11 12 13 14 16 17 17 18 19 19 20 19 19 18 17 17 17 17 18 18 20 21 22 23 24 25 26 25 24 24 24 24 22 22 20 20 19 17 16 15 15
9 10 11 12 13 15 16 17 18 19 19 20 20 20 19 17 16 16 16 16 17 17 18 20 21 22 23 24 25 25 23 23 23 24 24 23 22 21 19 18 17 16 15
9 10 11 12 14 15 17 18 19 19 20 20 21 20 19 17 16 15 15 15 14 15 15 17 19 20 22 23 24 24 24 24 23 24 24 24 22 21 20 19 17 16 16
9 10 11 12 14 16 17 18 19 20 20 21 21 20 19 18 16 15 14 14 13 12 13 14 15 17 19 21 23 24 24 24 23 24 24 24 23 22 21 20 18 16 16
9 9 11 12 14 16 17 18 19 20 21 21 21 20 19 17 16 15 14 12 11 10 11 13 14 16 17 19 21 23 23 24 24 24 24 24 24 24 22 21 20 18 17
9 9 11 12 14 16 17 18 19 20 20 21 21 20 19 17 15 14 13 11 10 8 8 10 12 15 16 17 19 21 23 24 23 24 24 24 25 24 23 22 21 20 18
9 9 11 12 14 16 17 18 19 20 20 21 21 20 19 17 15 13 12 10 9 7 5 6 9 12 13 14 16 19 21 23 23 23 24 24 26 25 24 24 23 22 20
8 9 10 12 14 16 17 18 19 19 20 20 20 19 18 17 15 13 11 10 8 6 4 4 6 8 10 12 14 16 18 21 24 25 24 25 25 26 26 25 24 23 22
8 9 10 12 14 16 17 18 18 19 19 19 19 19 17 16 15 13 11 10 9 6 4 2 3 6 7 9 12 15 16 18 21 23 24 24 25 25 26 25 24 24 23
9 9 10 12 14 16 17 18 18 18 18 18 18 18 17 15 14 13 12 11 9 7 4 2 1 3 5 7 9 12 14 16 18 19 22 24 24 25 26 26 26 26 26
9 9 10 12 14 16 17 18 17 17 17 17 17 17 16 15 13 12 11 10 9 7 5 3 1 1 3 5 7 10 12 15 16 17 19 21 23 24 26 26 26 27 27
9 9 10 11 13 15 16 17 16 16 16 16 16 16 16 15 13 11 10 9 8 7 6 4 2 1 1 4 6 8 10 12 14 16 19 20 22 24 26 27 27 28 28
Wind_Direction
297 294 295 295 293 290 288 287 287 283 279 277 272 267 264 262 259 253 251 249 247 245 244 244 244 244 244 244 243 243 243 246 247 250 253 257 262 266 273 279 290 310 334
297 295 296 295 293 290 287 286 285 283 279 275 272 269 265 262 259 256 252 251 249 248 247 246 245 247 247 246 246 245 245 245 246 248 250 254 258 260 263 267 275 289 306
298 297 297 296 294 292 289 287 285 283 280 277 273 271 266 263 261 258 254 252 250 249 248 247 246 247 247 247 247 246 245 244 244 246 249 251 252 253 253 256 261 273 277
301 300 298 298 296 293 289 286 284 282 279 278 276 275 270 266 262 257 254 252 251 251 249 248 246 246 246 246 246 246 245 244 245 246 247 247 246 246 247 248 251 256 254
303 302 302 301 298 296 293 290 287 283 279 278 276 273 272 268 263 257 255 253 252 251 250 249 248 246 245 245 246 245 245 244 244 244 244 243 241 240 241 242 242 241 239
305 305 305 304 303 302 299 297 293 288 284 280 277 275 274 270 267 262 257 253 253 252 250 251 249 246 245 245 244 244 244 242 242 240 239 238 237 236 237 237 234 229 227
308 308 308 308 308 307 306 303 299 294 290 284 280 277 274 271 268 265 262 255 254 254 254 252 251 248 244 244 242 242 242 241 239 237 237 234 234 235 234 231 229 224 223
310 311 312 314 314 314 312 309 306 303 299 293 288 284 280 275 270 268 263 260 255 255 254 252 251 249 245 244 242 241 241 239 236 234 234 232 231 232 232 228 225 223 220
313 315 318 319 320 320 319 317 314 310 306 301 295 290 285 280 275 271 267 265 260 257 254 251 250 247 244 243 241 241 240 237 234 232 231 231 230 229 228 224 223 219 218
316 320 324 327 328 329 328 327 325 321 317 310 303 297 290 285 281 276 271 266 262 260 256 252 249 247 243 242 241 241 239 235 232 230 228 228 229 227 225 222 219 217 215
321 325 329 335 337 337 337 335 331 328 324 319 313 305 296 290 285 280 275 269 265 261 257 252 247 246 244 241 240 239 236 233 230 228 226 227 227 224 222 220 215 213 212
325 330 335 339 340 341 341 339 336 333 329 326 320 314 305 296 289 283 277 272 268 263 257 252 246 243 243 240 238 236 233 232 228 227 226 225 225 222 217 215 212 209 208
330 335 339 342 343 343 342 341 339 336 334 331 327 321 313 304 295 289 281 275 270 264 257 251 246 241 240 237 235 233 230 229 227 227 224 222 221 218 214 213 211 209 207
333 338 341 343 344 345 344 343 342 340 337 334 331 326 319 311 302 293 285 279 272 265 256 250 246 242 240 237 234 231 228 225 227 226 222 220 218 215 213 211 211 209 206
331 336 340 342 345 346 345 344 342 341 339 337 334 331 325 318 309 299 290 281 273 267 258 250 245 241 237 233 231 228 225 225 225 225 221 219 217 214 213 212 212 209 206
327 333 338 340 343 344 344 342 342 341 340 339 337 334 330 325 317 306 297 287 278 271 260 249 243 238 232 229 227 223 222 221 222 221 219 220 217 212 211 210 209 209 208
323 331 336 339 341 341 341 341 342 342 341 340 339 336 333 329 324 315 306 296 285 273 260 248 239 235 230 227 225 220 220 220 220 217 218 217 215 213 211 210 209 209 209
320 329 334 337 339 339 340 341 341 342 342 342 341 339 336 332 328 323 315 306 292 276 259 246 236 230 227 227 225 220 218 218 215 215 215 214 213 212 212 211 209 208 206
317 325 331 334 337 339 340 340 341 342 343 343 343 341 339 335 330 326 322 316 303 284 263 244 234 228 225 225 224 219 216 216 215 214 215 214 212 213 213 212 210 209 207
312 320 328 332 336 339 339 340 341 342 343 344 344 343 342 339 335 331 328 324 318 302 273 246 234 228 226 222 219 219 217 215 212 212 213 213 211 213 213 213 212 211 210
307 316 325 331 336 338 339 340 341 342 344 346 346 346 346 345 342 339 336 333 325 317 288 251 233 226 224 220 218 218 217 214 213 213 214 213 212 213 213 213 212 212 213
302 312 323 331 335 338 340 341 341 343 344 346 348 348 349 350 349 347 343 342 339 335 311 264 230 220 220 219 216 215 214 213 214 215 217 217 215 215 217 215 214 215 217
298 310 321 329 336 339 341 342 342 343 345 347 349 351 352 353 355 355 353 353 352 349 342 309 232 216 210 212 214 214 212 212 215 218 220 219 219 218 219 217 218 218 219
293 306 319 327 334 339 341 342 342 344 346 348 351 352 354 356 358 359 1 2 4 5 3 357 233 214 212 214 216 217 214 211 212 217 220 221 222 222 221 221 224 225 222
289 303 316 325 332 338 341 343 343 345 347 349 351 354 356 357 358 1 6 8 11 16 19 22 38 202 220 215 216 218 219 217 216 219 220 222 224 224 222 222 226 228 226
285 299 312 322 330 336 341 344 345 346 347 349 352 355 358 0 1 3 6 9 12 21 26 29 34 25 256 228 223 224 225 221 222 224 224 225 227 227 228 229 230 230 231
Height
5875 5874 5873 5872 5872 5871 5871 5870 5869 5869 5868 5868 5867 5867 5867 5866 5866 5866 5866 5867 5867 5868 5868 5869 5869 5870 5870 5871 5872 5872 5873 5873 5874 5874 5875 5875 5876 5876 5876 5877 5877 5877 5877
5873 5872 5871 5870 5870 5869 5868 5867 5866 5866 5865 5865 5864 5864 5864 5864 5863 5864 5864 5864 5864 5865 5866 5866 5867 5867 5868 5869 5869 5870 5871 5871 5872 5872 5873 5874 5874 5875 5875 5876 5876 5876 5876
5871 5870 5869 5868 5867 5866 5865 5864 5863 5862 5862 5861 5860 5860 5860 5860 5860 5860 5860 5861 5861 5862 5863 5863 5864 5865 5866 5866 5867 5868 5868 5869 5870 5870 5871 5872 5872 5873 5874 5875 5875 5875 5876
5869 5868 5866 5865 5864 5863 5862 5860 5859 5858 5858 5857 5856 5856 5855 5856 5856 5856 5856 5857 5857 5858 5859 5860 5861 5862 5863 5864 5864 5865 5866 5866 5867 5868 5869 5870 5870 5871 5872 5873 5874 5875 5875
5866 5865 5863 5862 5860 5859 5858 5856 5855 5854 5853 5852 5851 5851 5850 5850 5850 5851 5852 5852 5853 5854 5855 5856 5857 5858 5859 5860 5861 5862 5863 5864 5865 5866 5867 5868 5868 5869 5871 5872 5873 5873 5874
5863 5862 5860 5858 5857 5855 5854 5852 5851 5849 5848 5847 5846 5846 5845 5845 5845 5846 5846 5847 5848 5849 5850 5852 5853 5854 5856 5857 5858 5859 5860 5861 5862 5863 5865 5866 5867 5868 5869 5870 5871 5872 5873
5860 5859 5857 5855 5853 5851 5850 5848 5846 5845 5843 5842 5841 5840 5840 5840 5840 5840 5841 5842 5843 5844 5845 5847 5849 5850 5852 5853 5855 5856 5857 5858 5859 5861 5862 5864 5865 5866 5867 5869 5870 5871 5872
5857 5856 5854 5852 5850 5848 5846 5844 5843 5841 5839 5838 5837 5835 5835 5834 5834 5834 5835 5836 5837 5838 5840 5841 5844 5846 5847 5849 5851 5852 5854 5855 5857 5858 5860 5861 5862 5864 5865 5867 5868 5870 5871
5855 5853 5852 5850 5848 5846 5843 5841 5840 5838 5836 5834 5832 5831 5830 5829 5828 5828 5829 5830 5831 5832 5834 5835 5838 5840 5843 5845 5847 5849 5850 5852 5854 5856 5857 5859 5860 5861 5863 5865 5867 5868 5870
5852 5851 5849 5847 5845 5844 5841 5839 5837 5835 5832 5830 5828 5827 5825 5824 5823 5823 5823 5824 5824 5826 5827 5830 5832 5835 5837 5840 5842 5844 5847 5849 5851 5853 5855 5856 5858 5859 5861 5863 5865 5867 5868
5850 5849 5847 5845 5843 5841 5839 5837 5835 5832 5830 5827 5825 5823 5821 5820 5819 5818 5818 5818 5818 5819 5821 5823 5826 5829 5831 5834 5837 5840 5843 5845 5848 5850 5852 5854 5856 5857 5859 5861 5863 5865 5867
5849 5847 5846 5844 5842 5840 5837 5835 5833 5830 5827 5825 5822 5819 5817 5815 5814 5813 5813 5813 5813 5813 5814 5816 5819 5822 5826 5829 5832 5835 5839 5842 5845 5847 5849 5851 5853 5855 5858 5860 5861 5863 5865
5848 5846 5844 5843 5841 5839 5836 5834 5831 5828 5825 5822 5819 5816 5814 5811 5810 5809 5808 5808 5807 5808 5809 5810 5813 5816 5820 5823 5827 5831 5834 5838 5841 5844 5846 5848 5850 5853 5855 5858 5860 5862 5864
5847 5845 5844 5842 5840 5837 5835 5832 5830 5827 5823 5820 5817 5813 5810 5808 5806 5804 5803 5803 5802 5803 5803 5805 5807 5811 5814 5818 5822 5826 5830 5834 5837 5840 5843 5845 5848 5850 5853 5855 5858 5860 5862
5846 5844 5843 5841 5839 5836 5834 5831 5828 5825 5822 5818 5814 5811 5808 5805 5802 5800 5799 5798 5798 5798 5799 5800 5802 5805 5809 5813 5817 5821 5825 5829 5832 5836 5839 5842 5844 5848 5850 5853 5856 5858 5860
5845 5844 5842 5840 5838 5836 5833 5830 5827 5824 5820 5816 5812 5808 5805 5802 5799 5796 5795 5794 5793 5793 5794 5795 5798 5800 5803 5808 5812 5817 5821 5825 5828 5831 5835 5839 5842 5845 5848 5851 5854 5856 5858
5844 5843 5841 5839 5837 5835 5832 5829 5826 5822 5818 5815 5811 5806 5803 5799 5796 5793 5791 5790 5789 5789 5789 5791 5793 5796 5799 5803 5808 5812 5816 5820 5823 5828 5832 5836 5839 5843 5846 5849 5852 5854 5857
5843 5842 5840 5838 5836 5834 5831 5828 5824 5821 5817 5813 5809 5805 5801 5797 5794 5791 5789 5787 5785 5785 5785 5787 5789 5792 5795 5799 5803 5808 5812 5815 5820 5824 5828 5832 5836 5840 5844 5847 5850 5852 5855
5842 5841 5839 5838 5835 5833 5830 5827 5823 5820 5816 5812 5807 5803 5799 5795 5792 5789 5787 5785 5783 5782 5782 5784 5786 5788 5792 5795 5799 5804 5808 5812 5816 5821 5825 5829 5833 5837 5841 5844 5847 5850 5853
5841 5840 5838 5837 5834 5832 5829 5826 5823 5819 5815 5811 5806 5802 5798 5794 5791 5788 5785 5783 5781 5780 5780 5781 5783 5785 5788 5792 5796 5800 5804 5808 5813 5817 5821 5825 5830 5833 5837 5841 5845 5848 5851
5840 5839 5837 5836 5834 5831 5828 5825 5822 5818 5814 5810 5806 5801 5797 5793 5790 5787 5784 5782 5780 5779 5779 5779 5781 5783 5786 5789 5793 5797 5801 5805 5810 5814 5817 5821 5826 5830 5833 5837 5841 5845 5848
5839 5838 5836 5835 5833 5830 5827 5824 5821 5817 5813 5809 5805 5801 5797 5793 5789 5786 5784 5782 5780 5778 5778 5778 5779 5781 5784 5787 5790 5794 5798 5802 5806 5810 5814 5818 5822 5827 5830 5834 5838 5841 5845
5837 5836 5835 5834 5832 5829 5826 5823 5820 5817 5813 5809 5805 5801 5797 5793 5789 5786 5784 5782 5780 5779 5778 5778 5779 5781 5783 5785 5788 5792 5795 5799 5802 5807 5811 5814 5818 5822 5827 5830 5834 5837 5841
5836 5835 5834 5833 5831 5828 5825 5822 5819 5816 5812 5809 5805 5801 5797 5794 5790 5787 5784 5782 5781 5779 5779 5779 5779 5780 5782 5784 5787 5789 5792 5795 5799 5803 5807 5811 5814 5818 5822 5827 5830 5834 5837
5834 5834 5833 5832 5830 5827 5824 5821 5818 5815 5812 5809 5805 5802 5798 5794 5791 5788 5786 5784 5782 5780 5780 5780 5780 5781 5782 5783 5785 5788 5790 5793 5796 5800 5803 5807 5811 5814 5818 5822 5826 5829 5832
5833 5832 5831 5830 5829 5826 5824 5821 5818 5815 5812 5809 5806 5802 5798 5795 5792 5789 5787 5785 5783 5782 5781 5781 5781 5781 5782 5783 5784 5786 5788 5791 5794 5797 5800 5803 5807 5810 5813 5817 5820 5824 5828